Regional Weather Roundup
Issued by NWS Jackson, KY

Home | Current Version | Previous Version | Text Only | Print | Product List | Glossary Off
Versions: 1 2 3 4 5 6 7 8 9 10 11 12 13 14 15 16 17 18 19 20 21 22 23 24 25 26 27 28 29 30 31 32 33 34 35 36 37 38 39 40 41 42 43 44 45 46 47 48 49 50

000
ASUS43 KJKL 010710
RWRJKL

EAST KENTUCKY HOURLY WEATHER ROUNDUP
NATIONAL WEATHER SERVICE JACKSON KY
300 AM EDT WED APR 01 2015

NOTE: "FAIR" INDICATES FEW OR NO CLOUDS BELOW 12,000 FEET WITH
NO SIGNIFICANT WEATHER AND/OR OBSTRUCTIONS TO VISIBILITY.

* THESE REPORTS ARE NOT UNDER NWS QUALITY CONTROL AND MAY NOT
  REPORT WEATHER SUCH AS PRECIPITATION AND FOG.

KYZ079-080-083-085-087-088-110-112-115-119-120-010800
...EASTERN KENTUCKY...

CITY           SKY/WX    TMP DP  RH WIND       PRES   REMARKS
JACKSON        CLEAR     43  34  70 NE5       30.02S
LONDON         CLEAR     48  32  53 N6        30.01R
SOMERSET*      CLEAR     48  32  53 N3        30.03R
MONTICELLO*    CLEAR     47  34  60 NE8       30.04S
MIDDLESBORO*   CLEAR     47  35  62 CALM      29.99S
BLACK MTN*       N/A     37  34  87 N7          N/A  WCI  32
PIKEVILLE APT* CLEAR     43  32  65 NW5       30.01S
BIG SANDY*     SUNNY     43  33  68 CALM      30.02S
MOREHEAD APT*  SUNNY     43  32  65 E5        30.06R
$$

KYZ035-036-041-042-044-050-067-078-099-010800
...CENTRAL KENTUCKY...

CITY           SKY/WX    TMP DP  RH WIND       PRES   REMARKS
MT STERLING*   CLEAR     39  36  87 NE3       30.05S
FLEMING/MASON* CLEAR     36  32  87 NE6       30.06R WCI  31
DANVILLE*      CLEAR     41  36  81 NE3       30.04R
RICHMOND*      CLEAR     43  36  75 NE5       30.03R
LEXINGTON      CLEAR     42  36  79 E8        30.04R
FRANKFORT      CLEAR     43  36  76 E7        30.03R
$$

KYZ091>093-OHZ055-061-077-WVZ005-015-034-035-042-010800
...SOUTHERN OHIO/WEST VIRGINIA...

CITY           SKY/WX    TMP DP  RH WIND       PRES   REMARKS
COVINGTON      CLEAR     39  33  79 E7        30.05R WCI  34
COLUMBUS       CLEAR     33  29  85 S3        30.05R
DAYTON         CLEAR     36  32  85 S5        30.05R WCI  32
WILMINGTON     CLEAR     33  30  88 SE5       30.05R WCI  29
HUNTINGTON     CLEAR     39  32  76 N3        30.04R
CHARLESTON     CLEAR     42  32  67 N5        30.02R
PINEVILLE*     CLEAR     38  36  92 MISG      30.03S
BECKLEY        CLEAR     39  28  64 NW5       29.96S
BLUEFIELD      CLEAR     44  33  65 W8        29.96S
$$

VAZ002-007-008-TNZ017-027-036-066-071-010800
...SOUTHWEST VIRGINIA/EAST TENNESSEE...

CITY           SKY/WX    TMP DP  RH WIND       PRES   REMARKS
WISE*          CLEAR     43  34  70 N7        30.00S
JONESVILLE*    SUNNY     48  32  53 CALM      29.99S
ABINGDON*      CLEAR     53  34  49 N5        29.95S
BRISTOL        CLEAR     52  32  46 N6        29.95S
KNOXVILLE      CLEAR     57  34  41 N7        29.96R
OAK RIDGE      CLEAR     59  31  34 VRB6      29.98R
CROSSVILLE     PTCLDY    53  33  46 NE5       30.00R
NASHVILLE      PTCLDY    56  36  47 N7        30.00R
$$

...KEY TO REMARKS...
VSB - VISIBILITY IN MILES
WCI - WIND CHILL INDEX
HX  - HEAT INDEX

$$



USA.gov is the U.S. government's official web portal to all federal, state and local government web resources and services.